[[{"header":{"parameterUnit":"m.s-1","parameterCategory":1,"la1":30.2991,"la2":30.254,"lo1":-89.0895,"lo2":-89.0444,"dy":0.0017,"dx":0.0017,"nx":28,"ny":28,"refTime":"2025-02-10T03:00:00:Z","depth":0,"parameterNumber":2,"parameterNumberName":"U-component_of_WINDS"},"data":[0,0,0,0,0,0,0,0,0,0,0,0,0,0,0,0,0,0,0,0,0,0,0,0,0,0,0,0,0,0,0,0,0,0,0,0,0,0,0,0,0,0,0,0,0,0,0,0,0,0,0,0,0,0,0,0,0,0,-0.8862,-0.8862,0,-0.8903,-0.8904,-0.8904,-0.8909,-0.8909,-0.8908,-0.8908,-0.8951,-0.8953,-0.8954,0,0,0,0,0,0,0,0,0,0,0,0,0,-0.8788,-0.879,-0.8862,-0.8862,-0.8863,-0.8903,-0.8904,-0.8904,-0.8909,-0.8909,-0.8908,-0.8908,-0.8951,-0.8953,-0.8955,0,0,0,0,0,0,0,0,0,0,0,0,0,-0.8824,-0.879,-0.8862,-0.887,-0.8871,-0.8903,-0.8904,-0.8904,-0.8909,-0.8909,-0.8908,-0.8908,-0.895,-0.8953,-0.8955,-0.8981,0,0,-0.8962,-0.8963,0,0,0,0,0,0,0,0,-0.8822,-0.8827,-0.8868,-0.887,-0.8871,-0.89,-0.8894,-0.893,-0.891,-0.8895,-0.8908,-0.8907,-0.8935,-0.8939,-0.8948,-0.8983,-0.8985,-0.8962,-0.8963,-0.8964,-0.8965,0,0,0,0,0,0,0,-0.8819,-0.8825,-0.8878,-0.8869,-0.8871,-0.8872,-0.8877,-0.8901,-0.8918,-0.8896,-0.8897,-0.8901,-0.8936,-0.8945,-0.8949,-0.8986,-0.8962,-0.8964,-0.8965,-0.8966,-0.9045,-0.9046,0,0,0,0,0,0,-0.8815,-0.8823,-0.8877,-0.8879,-0.8844,-0.8874,-0.8879,-0.8892,-0.8918,-0.8921,-0.8902,-0.8902,-0.8942,-0.8946,-0.895,-0.8982,-0.8964,-0.8967,-0.8968,-0.9044,-0.9045,-0.9046,0,0,0,0,0,0,-0.8814,-0.882,-0.8875,-0.8851,-0.8858,-0.8876,-0.889,-0.8893,-0.8903,-0.8922,-0.8925,-0.8909,-0.8941,-0.8947,-0.8973,-0.8984,-0.8968,-0.897,-0.9043,-0.9044,-0.9045,-0.9047,0,0,0,0,0,0,-0.8811,-0.8819,-0.8829,-0.8851,-0.886,-0.8897,-0.8891,-0.8894,-0.8906,-0.8906,-0.8929,-0.8932,-0.8941,-0.897,-0.8976,-0.8987,-0.8971,-0.9042,-0.9044,-0.9045,-0.9046,-0.9048,-0.905,0,0,0,0,0,-0.8809,-0.8828,-0.883,-0.8836,-0.8872,-0.8898,-0.8903,-0.8912,-0.8907,-0.8917,-0.893,-0.8932,-0.8982,-0.8973,-0.8979,-0.8991,-0.9042,-0.9043,-0.9045,-0.9045,-0.9048,-0.905,0,0,0,0,0,0,-0.8807,-0.8831,-0.8833,-0.886,-0.8877,-0.8899,-0.8912,-0.8915,-0.8933,-0.8932,-0.8944,-0.8949,-0.8975,-0.8986,-0.8975,-0.9018,-0.9012,-0.9015,-0.901,-0.9012,-0.9014,-0.901,-0.8973,0,0,0,0,0,-0.881,-0.8828,-0.8849,-0.8871,-0.8879,-0.8894,-0.8905,-0.8912,-0.8929,-0.8936,-0.8951,-0.8968,-0.8988,-0.9001,-0.902,-0.9048,-0.9053,-0.906,-0.9062,-0.9063,-0.9065,-0.908,-0.9084,-0.9051,-0.9051,-0.9051,0,0,-0.8816,-0.8832,-0.8842,-0.8871,-0.8884,-0.8903,-0.89,-0.892,-0.8934,-0.894,-0.8965,-0.8976,-0.8997,-0.9024,-0.9037,-0.9034,-0.9075,-0.9065,-0.9066,-0.9067,-0.9082,-0.9085,-0.9088,-0.9052,-0.9052,-0.9052,0,0,-0.8837,-0.885,-0.887,-0.8883,-0.8904,-0.8914,-0.8919,-0.894,-0.8948,-0.8973,-0.8978,-0.8995,-0.9029,-0.9043,-0.9055,-0.9081,-0.9083,-0.9087,-0.9096,-0.9111,-0.9113,-0.9116,-0.9124,-0.9127,-0.9089,-0.9089,-0.9089,0,-0.8841,-0.887,-0.888,-0.89,-0.8912,-0.8918,-0.8938,-0.8951,-0.8977,-0.8985,-0.8982,-0.9024,-0.9038,-0.9069,-0.9075,-0.9085,-0.909,-0.9084,-0.9112,-0.9115,-0.9117,-0.9125,-0.9129,-0.909,-0.909,-0.909,-0.909,0,-0.8874,-0.8894,-0.8908,-0.8932,-0.8946,-0.8966,-0.8979,-0.8992,-0.8998,-0.9008,-0.9034,-0.9051,-0.9074,-0.9082,-0.9087,-0.9113,-0.9111,-0.911,-0.9103,-0.912,-0.9128,-0.9132,-0.909,-0.909,-0.909,-0.909,0,0,-0.8894,-0.8924,-0.8929,-0.894,-0.8963,-0.8978,-0.8999,-0.9021,-0.9032,-0.905,-0.9067,-0.9096,-0.9095,-0.9108,-0.9115,-0.9128,-0.9147,-0.9126,-0.9126,-0.9128,-0.9176,-0.9176,-0.918,-0.9149,-0.915,-0.915,-0.9174,0,-0.8917,-0.8952,-0.8962,-0.8993,-0.9011,-0.9017,-0.9035,-0.9051,-0.9061,-0.9079,-0.909,-0.911,-0.9108,-0.9116,-0.9129,-0.9142,-0.9157,-0.9141,-0.9165,-0.9166,-0.9159,-0.9184,-0.9184,-0.9206,-0.9178,-0.9178,-0.9179,0,-0.8947,-0.8965,-0.8997,-0.9018,-0.9026,-0.9042,-0.9063,-0.9079,-0.9098,-0.9105,-0.9119,-0.9125,-0.9147,-0.914,-0.917,-0.9159,-0.917,-0.9178,-0.9179,-0.9181,-0.9172,-0.9186,-0.9213,-0.9216,-0.9184,-0.9183,-0.9183,0,-0.8958,-0.899,-0.9013,-0.9023,-0.9048,-0.9058,-0.9069,-0.9088,-0.91,-0.9119,-0.9127,-0.9148,-0.9159,-0.9176,-0.9187,-0.9181,-0.9216,-0.921,-0.9222,-0.9222,-0.9228,-0.9228,-0.9257,-0.9237,-0.9237,-0.9237,-0.9237,0,-0.8981,-0.9,-0.9018,-0.9032,-0.9054,-0.9066,-0.9087,-0.9098,-0.9115,-0.9131,-0.9138,-0.9154,-0.9169,-0.9186,-0.9196,-0.9219,-0.9224,-0.923,-0.9232,-0.9229,-0.9228,-0.9236,-0.9234,-0.9238,-0.9237,-0.9237,-0.9237,0,-0.8996,-0.9009,-0.9034,-0.9056,-0.9062,-0.9077,-0.9095,-0.9109,-0.912,-0.9141,-0.9147,-0.9164,-0.9185,-0.9199,-0.9226,-0.9232,-0.9257,-0.926,-0.9251,-0.9252,-0.9262,-0.9261,-0.9296,-0.9302,-0.9279,-0.9279,-0.9279,0,-0.901,-0.9025,-0.9047,-0.9059,-0.907,-0.9088,-0.9101,-0.9113,-0.9126,-0.9149,-0.916,-0.9182,-0.92,-0.9233,-0.9248,-0.9269,-0.9271,-0.9283,-0.9275,-0.9271,-0.9271,-0.9269,-0.9271,-0.9283,-0.9284,-0.9284,-0.9284,0,-0.9033,-0.9038,-0.9056,-0.9076,-0.9091,-0.9107,-0.9124,-0.9133,-0.9148,-0.9162,-0.9184,-0.9198,-0.9225,-0.9247,-0.9269,-0.928,-0.9285,-0.9286,-0.929,-0.9287,-0.9281,-0.9283,-0.9253,-0.9285,-0.9285,-0.9285,-0.9285,-0.9285,-0.9047,-0.906,-0.9078,-0.9098,-0.9111,-0.9127,-0.9141,-0.9153,-0.9171,-0.9194,-0.9201,-0.9223,-0.9242,-0.9272,-0.9284,-0.9302,-0.9301,-0.9306,-0.9307,-0.9308,-0.9308,-0.9278,-0.9306,-0.9306,-0.9306,-0.9306,-0.9306,0,-0.9069,-0.9081,-0.9099,-0.9122,-0.9137,-0.914,-0.9158,-0.9171,-0.919,-0.9207,-0.9225,-0.9249,-0.927,-0.9287,-0.9308,-0.932,-0.9322,-0.9325,-0.9324,-0.9326,-0.9309,-0.9303,-0.9322,-0.9322,-0.9322,-0.9322,-0.9322,-0.9322,-0.9083,-0.9105,-0.9113,-0.9142,-0.9154,-0.9176,-0.9186,-0.92,-0.9214,-0.9241,-0.9258,-0.9269,-0.9286,-0.9308,-0.9328,-0.9332,-0.9339,-0.9341,-0.9346,-0.9329,-0.9327,-0.9326,-0.932,-0.9343,-0.9343,-0.9362,-0.9362,-0.9362]},{"header":{"parameterUnit":"m.s-1","parameterCategory":1,"la1":30.2991,"la2":30.254,"lo1":-89.0895,"lo2":-89.0444,"dy":0.0017,"dx":0.0017,"nx":28,"ny":28,"refTime":"2025-02-10T03:00:00:Z","depth":0,"parameterNumber":3,"parameterNumberName":"V-component_of_WINDS"},"data":[0,0,0,0,0,0,0,0,0,0,0,0,0,0,0,0,0,0,0,0,0,0,0,0,0,0,0,0,0,0,0,0,0,0,0,0,0,0,0,0,0,0,0,0,0,0,0,0,0,0,0,0,0,0,0,0,0,0,3.0019,3.002,0,3.0087,3.0088,3.0089,3.0115,3.0115,3.0115,3.0114,3.0186,3.0188,3.019,0,0,0,0,0,0,0,0,0,0,0,0,0,2.9917,2.9919,3.0019,3.002,3.0021,3.0087,3.0088,3.0089,3.0115,3.0115,3.0115,3.0114,3.0185,3.0188,3.019,0,0,0,0,0,0,0,0,0,0,0,0,0,2.9971,2.9919,3.0019,3.0042,3.0045,3.0087,3.0088,3.0089,3.0115,3.0115,3.0114,3.0114,3.0185,3.0188,3.0191,3.0216,0,0,3.02,3.0202,0,0,0,0,0,0,0,0,2.9968,2.9974,3.0038,3.004,3.0043,3.0092,3.0078,3.0132,3.0115,3.0088,3.0114,3.0114,3.0155,3.0161,3.0174,3.0219,3.0222,3.0201,3.0202,3.0204,3.0205,0,0,0,0,0,0,0,2.9964,2.9972,3.0046,3.0039,3.0042,3.005,3.0058,3.0088,3.0123,3.0091,3.0093,3.01,3.0157,3.0171,3.0176,3.0223,3.02,3.0203,3.0205,3.0206,3.0297,3.0298,0,0,0,0,0,0,2.9956,2.9968,3.0044,3.0048,3.0004,3.0052,3.006,3.0077,3.0122,3.0129,3.01,3.0101,3.0166,3.0172,3.0179,3.0214,3.0204,3.0207,3.0209,3.0297,3.0297,3.0298,0,0,0,0,0,0,2.9953,2.9962,3.0041,3.0009,3.0019,3.0054,3.0073,3.0078,3.0093,3.013,3.0136,3.0108,3.0166,3.0174,3.0207,3.0217,3.0208,3.0211,3.0296,3.0297,3.0297,3.0283,0,0,0,0,0,0,2.995,2.9961,2.997,3.0009,3.0021,3.0067,3.0073,3.008,3.0098,3.0099,3.0139,3.0145,3.0166,3.0202,3.021,3.0221,3.0213,3.0295,3.0296,3.0297,3.0283,3.0283,3.0284,0,0,0,0,0,2.9947,2.9962,2.997,2.9979,3.0032,3.0067,3.0075,3.0098,3.0098,3.0108,3.0133,3.0144,3.0214,3.0206,3.0215,3.0226,3.0295,3.0296,3.0297,3.0283,3.0283,3.0284,0,0,0,0,0,0,2.9923,2.9968,2.9977,3.0005,3.0032,3.0072,3.0085,3.0097,3.0125,3.0125,3.0154,3.0163,3.0194,3.0213,3.0203,3.0255,3.0256,3.0259,3.0241,3.0242,3.0243,3.0238,3.0216,0,0,0,0,0,2.9921,2.9945,2.9983,3.0005,3.0018,3.0049,3.0065,3.0081,3.011,3.0122,3.0149,3.0178,3.0207,3.0226,3.0254,3.0286,3.0297,3.0299,3.0299,3.0299,3.0302,3.0324,3.0327,3.0302,3.0302,3.0302,0,0,2.9918,2.9945,2.9958,3.0001,3.0024,3.005,3.0058,3.0084,3.0105,3.0126,3.016,3.0181,3.0215,3.0249,3.0265,3.0266,3.0311,3.0301,3.03,3.0303,3.0326,3.0328,3.033,3.0303,3.0302,3.0302,0,0,2.9925,2.9946,2.9969,2.9992,3.0027,3.0048,3.0054,3.0092,3.0107,3.0141,3.0159,3.0184,3.0232,3.0258,3.0277,3.0298,3.0311,3.0306,3.0309,3.033,3.0332,3.0334,3.0345,3.0348,3.0309,3.0309,3.0308,0,2.9916,2.9954,2.9979,3.0005,3.0025,3.0046,3.0071,3.0092,3.0135,3.0149,3.0149,3.0213,3.0238,3.0279,3.0285,3.0299,3.0308,3.0302,3.0329,3.0332,3.0334,3.0345,3.0348,3.0308,3.0308,3.0308,3.0308,0,2.9944,2.997,2.9984,3.0026,3.0047,3.0072,3.0102,3.0121,3.0136,3.0158,3.0195,3.0225,3.0262,3.0273,3.0287,3.0318,3.0318,3.0324,3.0325,3.0335,3.0346,3.035,3.0307,3.0307,3.0308,3.0308,0,0,2.9936,2.9993,2.9998,3.0018,3.006,3.0082,3.011,3.0146,3.0163,3.0193,3.0219,3.0261,3.0268,3.029,3.0307,3.0326,3.0345,3.033,3.0331,3.0334,3.0385,3.0382,3.0386,3.0353,3.0354,3.0355,3.0383,0,2.995,2.9999,3.0024,3.0063,3.0091,3.0113,3.0138,3.0168,3.019,3.0217,3.0242,3.0273,3.0278,3.0292,3.0311,3.0338,3.0356,3.0336,3.0381,3.0382,3.0373,3.0391,3.0387,3.0412,3.0387,3.0388,3.0388,0,2.9972,3.0003,3.0045,3.0088,3.01,3.0122,3.0159,3.0184,3.022,3.0235,3.0261,3.0279,3.0312,3.0311,3.0358,3.0345,3.0365,3.0381,3.0383,3.0389,3.0387,3.04,3.042,3.0425,3.0394,3.0394,3.0393,0,2.9966,3.0017,3.0051,3.0067,3.0117,3.0132,3.0154,3.0189,3.0211,3.0244,3.0259,3.0295,3.0316,3.0345,3.0374,3.0369,3.042,3.042,3.0436,3.0436,3.0446,3.0446,3.0472,3.0456,3.0456,3.0455,3.0455,0,2.998,3.0006,3.0049,3.0069,3.01,3.013,3.016,3.0183,3.0215,3.0243,3.0265,3.029,3.0326,3.0357,3.0379,3.0418,3.0426,3.0441,3.0448,3.0441,3.0439,3.0455,3.0455,3.0457,3.0456,3.0456,3.0456,0,2.9977,3.0007,3.0045,3.009,3.0102,3.0123,3.0163,3.0185,3.0209,3.0244,3.0254,3.0293,3.0331,3.0362,3.0412,3.0427,3.0468,3.0474,3.0456,3.046,3.0476,3.0475,3.0515,3.0523,3.0499,3.0499,3.0499,0,2.9985,3.0006,3.0054,3.0074,3.0095,3.0127,3.015,3.018,3.0204,3.0248,3.0266,3.0306,3.0339,3.04,3.0433,3.0473,3.0481,3.0493,3.0487,3.0481,3.0485,3.0484,3.0488,3.0493,3.0494,3.0494,3.0494,0,2.9996,3.0011,3.0043,3.0081,3.0108,3.0139,3.0171,3.0187,3.0224,3.025,3.0289,3.0315,3.0368,3.0408,3.0452,3.0476,3.0493,3.0495,3.0502,3.0496,3.0486,3.0495,3.046,3.0494,3.0494,3.0494,3.0494,3.0494,3.0001,3.0022,3.006,3.0096,3.0124,3.0155,3.0179,3.0207,3.024,3.0285,3.0302,3.0343,3.0383,3.0443,3.0469,3.0503,3.0505,3.0513,3.0516,3.0518,3.0519,3.0479,3.0511,3.0511,3.0511,3.0511,3.0511,0,3.0016,3.0042,3.0075,3.012,3.015,3.0162,3.02,3.0224,3.026,3.0295,3.0328,3.0376,3.0417,3.0455,3.0498,3.0519,3.0528,3.0529,3.0529,3.0535,3.0513,3.0505,3.0521,3.0521,3.0521,3.0521,3.0521,3.0521,3.0027,3.0064,3.0084,3.0138,3.0165,3.0205,3.0226,3.0256,3.0285,3.0337,3.0371,3.0395,3.0433,3.048,3.0519,3.0529,3.0546,3.0546,3.0559,3.0537,3.0536,3.0535,3.0527,3.0548,3.0548,3.0578,3.0578,3.0579]}]]